Regional Weather Roundup
Issued by NWS

Home | Current Version | Previous Version | Graphics & Text | Print | Product List | Glossary On
Versions: 1 2 3 4 5 6 7 8 9 10 11 12 13 14 15 16 17 18 19 20 21 22 23 24 25 26 27 28 29 30 31 32 33 34 35 36 37 38 39 40 41 42 43 44 45 46 47 48 49 50
000
ASUS43 KBIS 280720
RWRND

NORTH DAKOTA REGIONAL WEATHER ROUNDUP
NATIONAL WEATHER SERVICE BISMARCK ND
200 AM CDT SAT MAR 28 2015

NOTE: "FAIR" INDICATES FEW OR NO CLOUDS BELOW 12,000 FEET WITH NO
SIGNIFICANT WEATHER AND/OR OBSTRUCTIONS TO VISIBILITY.


NDZ001>003-009>011-017-280800-
NORTHWEST NORTH DAKOTA

CITY           SKY/WX    TMP DP  RH WIND       PRES   REMARKS
WILLISTON      CLEAR     35  33  92 E3        29.91S
MINOT          CLEAR     29  27  92 E3        29.96S
MINOT AFB      CLEAR     29  29 100 E5        29.96S
$$

NDZ018>021-031>035-040>046-280800-
SOUTHWEST NORTH DAKOTA

CITY           SKY/WX    TMP DP  RH WIND       PRES   REMARKS
BISMARCK       PTCLDY    28  27  96 NE8       29.98R WCI  20
DICKINSON      CLEAR     32  28  85 S7        29.91S
GARRISON         N/A     30  28  92 CALM      29.95S
HETTINGER ARPT CLEAR     30  26  85 CALM      29.95F
$$

NDZ004>008-012>016-024-026-027-054-280800-
NORTHEAST NORTH DAKOTA

CITY           SKY/WX    TMP DP  RH WIND       PRES   REMARKS
GRAND FORKS    CLEAR     23  19  85 SE6       30.10F WCI  16
GRND FRKS AFB  MOCLDY    23  19  86 SE6       30.10R WCI  16
DEVILS LAKE    CLOUDY    28  25  86 S13       30.03R WCI  18
$$

NDZ022-023-025-028>030-036>039-047>053-280800-
SOUTHEAST NORTH DAKOTA

CITY           SKY/WX    TMP DP  RH WIND       PRES   REMARKS
FARGO          MOCLDY    29  17  61 SE7       30.11S
JAMESTOWN      CLOUDY    28  27  96 SE13      30.02S WCI  17
$$



USA.gov is the U.S. government's official web portal to all federal, state and local government web resources and services.